This demonstration page uses our WeatherBlox Daily Observations layout. Learn more.

Left ArrowRight Arrow

Hourly Observations for February 16, 2018

Temp ( °F °C ) Dew Point ( °F °C ) Humidity (%) Winds ( mph kmh ) Pressure ( in mb ) Visibility ( mi km ) Precip ( " mm )
12:53 am 00:53 Mostly Cloudy 19 -7.2 13 -10.6 77 77 N 25 41 30.42 1030 N/A 0.00 0.00
1:05 am 01:05 Partly Cloudy 19 -7.2 13 -10.6 77 77 N 23 37 30.50 1033 N/A 0.00 0.00
1:13 am 01:13 Mostly Cloudy 19 -7.2 13 -10.6 77 77 N 22 35 30.50 1033 N/A 0.00 0.00
1:53 am 01:53 Cloudy 18 -7.8 12 -11.1 77 77 N 22 35 30.45 1031 N/A 0.00 0.00
2:53 am 02:53 Mostly Cloudy 17 -8.3 11 -11.7 77 77 N 17 28 30.47 1032 N/A 0.00 0.00
3:27 am 03:27 Cloudy with Light Snow 18 -8 10 -12 73 73 NNW 18 30 30.56 1035 N/A 0.00 0.00
3:46 am 03:46 Partly Cloudy 16 -8.9 8 -13.3 71 71 N 18 30 30.59 1036 N/A 0.00 0.03
3:53 am 03:53 Mostly Clear 16 -8.9 8 -13.3 71 71 N 15 24 30.49 1033 N/A 0.00 0.03
4:53 am 04:53 Partly Cloudy 15 -9.4 8 -13.3 74 74 N 12 19 30.49 1033 N/A 0.00 0.00
5:53 am 05:53 Clear 14 -10 6 -14.4 71 71 NNW 13 20 30.50 1033 N/A 0.00 0.00
6:53 am 06:53 Clear 13 -10.6 7 -13.9 77 77 NNW 5 7 30.51 1033 N/A 0.00 0.00
7:53 am 07:53 Sunny 13 -10.6 8 -13.3 81 81 WNW 3 6 30.53 1034 N/A 0.00 0.00
8:53 am 08:53 Sunny 15 -9.4 8 -13.3 74 74 NW 5 7 30.53 1034 N/A 0.00 0.00
9:53 am 09:53 Sunny 18 -7.8 8 -13.3 65 65 SW 3 6 30.52 1034 N/A 0.00 0.00
10:53 am 10:53 Sunny 21 -6.1 9 -12.8 59 59 WSW 8 13 30.50 1033 10 16 0.00 0.00
11:53 am 11:53 Sunny 24 -4.4 7 -13.9 48 48 SSW 9 15 30.48 1032 10 16 0.00 0.00
12:53 pm 12:53 Sunny 28 -2.2 11 -11.7 49 49 SSW 12 19 30.43 1031 10 16 0.00 0.00
1:53 pm 13:53 Sunny 30 -1.1 13 -10.6 49 49 SSW 12 19 30.37 1029 10 16 0.00 0.00
2:53 pm 14:53 Sunny 32 0 13 -10.6 45 45 SW 12 19 30.30 1026 10 16 0.00 0.00
3:53 pm 15:53 Sunny 32 0 15 -9.4 50 50 S 14 22 30.27 1025 10 16 0.00 0.00
4:53 pm 16:53 Sunny 33 0.6 16 -8.9 49 49 SSW 9 15 30.25 1024 10 16 0.00 0.00
5:53 pm 17:53 Sunny 31 -0.6 16 -8.9 54 54 S 9 15 30.21 1023 10 16 0.00 0.00
6:53 pm 18:53 Clear 29 -1.7 16 -8.9 58 58 S 10 17 30.19 1022 10 16 0.00 0.00
7:53 pm 19:53 Clear 28 -2.2 15 -9.4 58 58 S 13 20 30.16 1021 10 16 0.00 0.00
8:53 pm 20:53 Clear 28 -2.2 15 -9.4 58 58 S 10 17 30.13 1020 10 16 0.00 0.00
9:53 pm 21:53 Clear 27 -2.8 15 -9.4 61 61 S 12 19 30.11 1020 10 16 0.00 0.00
10:53 pm 22:53 Clear 27 -2.8 13 -10.6 55 55 S 12 19 30.07 1018 10 16 0.00 0.00
11:53 pm 23:53 Clear 27 -2.8 14 -10 58 58 S 10 17 30.02 1017 10 16 0.00 0.00

Powered by AerisWeather